Location: Oklahoma City
(35.4680°N, 97.5160°W)
Time: 22:30:06
(UTC-05:00)

ISS - Visible Passes

Search period start: 28 March 2017 00:00
Search period end: 07 April 2017 00:00
Orbit: 399 x 409 km, 51.6° (Epoch: 29 March)

Date Brightness Start Highest point End Pass type
(mag) Time Alt. Az. Time Alt. Az. Time Alt. Az.
28 Mar -1.2 21:41:46 10° WNW 21:44:05 18° NNW 21:45:27 14° N visible
29 Mar -1.9 20:48:39 10° W 20:51:33 30° NW 20:54:29 10° NNE visible
30 Mar -0.6 21:35:40 10° NNW 21:36:09 10° NNW 21:36:37 10° NNW visible
31 Mar -1.0 20:41:26 10° WNW 20:43:28 15° NNW 20:45:30 10° N visible
